This is the latest recevied weather packets stored in our database for station/object KY0TEQ-13. If no packets are shown the sender has not sent any weather packets the latest 10 day(s).
| Time | Temp. | Humidity | Pressure | Rain* | Wind** | Luminosity | Snow |
|---|---|---|---|---|---|---|---|
| 1777777868 | 8.89° C | 29% | 1306 hPa | 0 mm | - | 0 W/m² | - |
| 1777777564 | 9.44° C | 29% | 1305.8 hPa | 0 mm | - | 0 W/m² | - |
| 1777777261 | 10° C | 27% | 1305.4 hPa | 0 mm | - | 0 W/m² | - |
| 1777776957 | 10° C | 27% | 1305.8 hPa | 0 mm | - | 0 W/m² | - |
| 1777776655 | 10.56° C | 26% | 1305.6 hPa | 0 mm | - | 0 W/m² | - |
| 1777776351 | 10.56° C | 26% | 1305.5 hPa | 0 mm | - | 0 W/m² | - |
| 1777776049 | 11.11° C | 25% | 1305.6 hPa | 0 mm | - | 0 W/m² | - |
| 1777775745 | 11.11° C | 24% | 1305.5 hPa | 0 mm | - | 0 W/m² | - |
| 1777775443 | 11.67° C | 24% | 1305.4 hPa | 0 mm | - | 0 W/m² | - |
| 1777775138 | 11.67° C | 24% | 1305.2 hPa | 0 mm | - | 0 W/m² | - |
| 1777774833 | 11.67° C | 24% | 1305.4 hPa | 0 mm | - | 0 W/m² | - |
| 1777774530 | 12.22° C | 24% | 1305.2 hPa | 0 mm | - | 0 W/m² | - |
| 1777774227 | 11.67° C | 25% | 1305.1 hPa | 0 mm | - | 1 W/m² | - |
| 1777773925 | 11.67° C | 25% | 1305.4 hPa | 0 mm | - | 2 W/m² | - |
| 1777773621 | 12.78° C | 24% | 1305.1 hPa | 0 mm | - | 3 W/m² | - |
| 1777773318 | 12.78° C | 23% | 1305 hPa | 0 mm | - | 4 W/m² | - |
| 1777773015 | 13.89° C | 21% | 1304.8 hPa | 0 mm | - | 6 W/m² | - |
| 1777772711 | 13.89° C | 21% | 1305 hPa | 0 mm | - | 9 W/m² | - |
| 1777772409 | 13.89° C | 21% | 1305 hPa | 0 mm | - | 12 W/m² | - |
| 1777772106 | 15° C | 20% | 1305.1 hPa | 0 mm | - | 15 W/m² | - |
| 1777771804 | 15° C | 18% | 1305 hPa | 0 mm | - | 19 W/m² | - |
| 1777771501 | 15.56° C | 18% | 1305 hPa | 0 mm | - | 23 W/m² | - |
| 1777771196 | 16.11° C | 18% | 1305 hPa | 0 mm | - | 26 W/m² | - |
| 1777770894 | 16.11° C | 15% | 1305 hPa | 0 mm | - | 35 W/m² | - |
| 1777770591 | 16.11° C | 15% | 1305 hPa | 0 mm | - | 43 W/m² | - |
* Rain latest hour (hover to see other rain measurements)
** Current wind speed in m/s (hover to see current wind gust speed)